Time,TemperatureF,DewpointF,PressureIn,WindDirection,WindDirectionDegrees,WindSpeedMPH,WindSpeedGustMPH,Humidity,HourlyPrecipIn,Conditions,Clouds,dailyrainin,SoftwareType,DateUTC
2013-04-13 00:10:00,23.0,16.0,30.02,SSW,205,0.0,0.0,74,0.00,,,0.00,weatherlink.com 1.10,2013-04-13 06:10:00,
2013-04-13 00:25:00,22.7,15.0,30.02,SSW,205,0.0,0.0,73,0.00,,,0.00,weatherlink.com 1.10,2013-04-13 06:25:00,
2013-04-13 00:40:00,22.4,15.0,30.02,SSW,205,0.0,1.0,74,0.00,,,0.00,weatherlink.com 1.10,2013-04-13 06:40:00,
2013-04-13 00:55:00,22.1,16.0,30.01,SSW,205,0.0,0.0,76,0.00,,,0.00,weatherlink.com 1.10,2013-04-13 06:55:00,
2013-04-13 01:10:00,21.6,15.0,30.02,SSW,205,0.0,1.0,76,0.00,,,0.00,weatherlink.com 1.10,2013-04-13 07:10:00,
2013-04-13 01:41:00,20.9,15.0,30.01,SW,216,0.0,1.0,77,0.00,,,0.00,weatherlink.com 1.10,2013-04-13 07:41:00,
2013-04-13 01:56:00,20.5,14.0,30.00,SW,224,0.0,1.0,76,0.00,,,0.00,weatherlink.com 1.10,2013-04-13 07:56:00,
2013-04-13 02:11:00,20.1,14.0,30.00,SW,224,0.0,1.0,78,0.00,,,0.00,weatherlink.com 1.10,2013-04-13 08:11:00,
2013-04-13 02:26:00,19.8,14.0,30.00,WSW,244,0.0,1.0,79,0.00,,,0.00,weatherlink.com 1.10,2013-04-13 08:26:00,
2013-04-13 02:56:00,18.9,14.0,29.99,WSW,244,0.0,1.0,81,0.00,,,0.00,weatherlink.com 1.10,2013-04-13 08:56:00,
2013-04-13 03:41:00,18.2,13.0,29.99,WSW,244,0.0,1.0,81,0.00,,,0.00,weatherlink.com 1.10,2013-04-13 09:41:00,
2013-04-13 04:11:00,17.6,13.0,29.98,WSW,244,0.0,1.0,82,0.00,,,0.00,weatherlink.com 1.10,2013-04-13 10:11:00,
2013-04-13 04:26:00,17.5,13.0,29.98,WSW,244,0.0,1.0,83,0.00,,,0.00,weatherlink.com 1.10,2013-04-13 10:26:00,
2013-04-13 04:41:00,17.0,13.0,29.98,WSW,244,1.0,1.0,83,0.00,,,0.00,weatherlink.com 1.10,2013-04-13 10:41:00,
2013-04-13 06:11:00,15.9,12.0,29.99,WSW,244,0.0,1.0,85,0.00,,,0.00,weatherlink.com 1.10,2013-04-13 12:11:00,
2013-04-13 06:26:00,16.6,13.0,29.98,WSW,249,1.0,3.0,86,0.00,,,0.00,weatherlink.com 1.10,2013-04-13 12:26:00,
2013-04-13 06:42:00,16.4,12.0,29.98,WSW,255,0.0,1.0,84,0.00,,,0.00,weatherlink.com 1.10,2013-04-13 12:42:00,
2013-04-13 07:11:00,16.3,13.0,29.99,WSW,255,0.0,1.0,86,0.00,,,0.00,weatherlink.com 1.10,2013-04-13 13:11:00,
2013-04-13 07:42:00,18.3,15.0,29.98,SSE,159,0.0,1.0,85,0.00,,,0.00,weatherlink.com 1.10,2013-04-13 13:42:00,
2013-04-13 08:12:00,22.3,16.0,29.96,East,94,0.0,2.0,76,0.00,,,0.00,weatherlink.com 1.10,2013-04-13 14:12:00,
2013-04-13 08:27:00,23.9,16.0,29.96,ESE,107,0.0,2.0,71,0.00,,,0.00,weatherlink.com 1.10,2013-04-13 14:27:00,
2013-04-13 08:42:00,26.5,18.0,29.95,SW,229,0.0,1.0,71,0.00,,,0.00,weatherlink.com 1.10,2013-04-13 14:42:00,
2013-04-13 08:57:00,28.5,19.0,29.94,SW,229,0.0,1.0,68,0.00,,,0.00,weatherlink.com 1.10,2013-04-13 14:57:00,
2013-04-13 09:12:00,31.4,19.0,29.92,ESE,107,0.0,3.0,60,0.00,,,0.00,weatherlink.com 1.10,2013-04-13 15:12:00,
2013-04-13 09:27:00,34.4,18.0,29.92,ESE,109,0.0,3.0,51,0.00,,,0.00,weatherlink.com 1.10,2013-04-13 15:27:00,
2013-04-13 09:42:00,37.4,17.0,29.91,ESE,117,0.0,7.0,43,0.00,,,0.00,weatherlink.com 1.10,2013-04-13 15:42:00,
2013-04-13 10:12:00,40.6,16.0,29.91,SE,127,0.0,12.0,37,0.00,,,0.00,weatherlink.com 1.10,2013-04-13 16:12:00,
2013-04-13 10:27:00,41.9,16.0,29.90,ESE,117,1.0,11.0,35,0.00,,,0.00,weatherlink.com 1.10,2013-04-13 16:27:00,
2013-04-13 10:42:00,42.8,15.0,29.89,ESE,112,0.0,8.0,33,0.00,,,0.00,weatherlink.com 1.10,2013-04-13 16:42:00,
2013-04-13 10:57:00,43.5,16.0,29.89,ESE,121,3.0,8.0,33,0.00,,,0.00,weatherlink.com 1.10,2013-04-13 16:57:00,
2013-04-13 11:27:00,45.2,17.0,29.86,NNW,340,8.0,13.0,32,0.00,,,0.00,weatherlink.com 1.10,2013-04-13 17:27:00,
2013-04-13 11:43:00,45.9,16.0,29.85,ESE,116,0.0,12.0,30,0.00,,,0.00,weatherlink.com 1.10,2013-04-13 17:43:00,
2013-04-13 11:58:00,46.0,15.0,29.84,SE,135,10.0,15.0,29,0.00,,,0.00,weatherlink.com 1.10,2013-04-13 17:58:00,
2013-04-13 12:13:00,45.7,14.0,29.83,East,96,6.0,17.0,28,0.00,,,0.00,weatherlink.com 1.10,2013-04-13 18:13:00,
2013-04-13 12:28:00,46.5,19.0,29.82,ESE,105,6.0,14.0,34,0.00,,,0.00,weatherlink.com 1.10,2013-04-13 18:28:00,
2013-04-13 12:43:00,47.5,18.0,29.81,SSW,207,6.0,17.0,31,0.00,,,0.00,weatherlink.com 1.10,2013-04-13 18:43:00,
2013-04-13 12:58:00,47.5,18.0,29.80,ESE,117,4.0,15.0,31,0.00,,,0.00,weatherlink.com 1.10,2013-04-13 18:58:00,
2013-04-13 13:13:00,48.3,16.0,29.78,East,82,3.0,16.0,28,0.00,,,0.00,weatherlink.com 1.10,2013-04-13 19:13:00,
2013-04-13 13:28:00,49.3,18.0,29.77,NW,314,8.0,16.0,29,0.00,,,0.00,weatherlink.com 1.10,2013-04-13 19:28:00,
2013-04-13 13:43:00,48.0,16.0,29.75,East,80,5.0,22.0,28,0.00,,,0.00,weatherlink.com 1.10,2013-04-13 19:43:00,
2013-04-13 13:58:00,47.5,18.0,29.75,NNW,340,1.0,20.0,31,0.00,,,0.00,weatherlink.com 1.10,2013-04-13 19:58:00,
2013-04-13 14:13:00,46.8,14.0,29.75,ESE,106,13.0,19.0,27,0.00,,,0.00,weatherlink.com 1.10,2013-04-13 20:13:00,
2013-04-13 14:28:00,46.9,11.0,29.74,ESE,103,9.0,13.0,23,0.00,,,0.00,weatherlink.com 1.10,2013-04-13 20:28:00,
2013-04-13 14:43:00,47.8,13.0,29.72,WSW,243,5.0,28.0,25,0.00,,,0.00,weatherlink.com 1.10,2013-04-13 20:43:00,
2013-04-13 14:58:00,46.9,15.0,29.72,SE,127,13.0,20.0,28,0.00,,,0.00,weatherlink.com 1.10,2013-04-13 20:58:00,
2013-04-13 15:13:00,45.7,14.0,29.71,SE,146,2.0,24.0,28,0.00,,,0.00,weatherlink.com 1.10,2013-04-13 21:13:00,
2013-04-13 15:28:00,45.4,15.0,29.71,SW,231,3.0,25.0,30,0.00,,,0.00,weatherlink.com 1.10,2013-04-13 21:28:00,
2013-04-13 15:43:00,45.4,15.0,29.70,WSW,242,5.0,17.0,30,0.00,,,0.00,weatherlink.com 1.10,2013-04-13 21:43:00,
2013-04-13 15:58:00,45.1,14.0,29.69,ESE,122,3.0,16.0,29,0.00,,,0.00,weatherlink.com 1.10,2013-04-13 21:58:00,
2013-04-13 16:13:00,45.1,16.0,29.68,East,92,2.0,14.0,31,0.00,,,0.00,weatherlink.com 1.10,2013-04-13 22:13:00,
2013-04-13 16:28:00,45.2,15.0,29.68,ENE,69,15.0,17.0,30,0.00,,,0.00,weatherlink.com 1.10,2013-04-13 22:28:00,
2013-04-13 16:43:00,44.5,15.0,29.68,SE,129,6.0,17.0,31,0.00,,,0.00,weatherlink.com 1.10,2013-04-13 22:43:00,
2013-04-13 16:58:00,44.2,17.0,29.66,ESE,118,3.0,19.0,33,0.00,,,0.00,weatherlink.com 1.10,2013-04-13 22:58:00,
2013-04-13 17:13:00,44.1,18.0,29.66,ESE,107,10.0,18.0,35,0.00,,,0.00,weatherlink.com 1.10,2013-04-13 23:13:00,
2013-04-13 17:28:00,43.6,18.0,29.66,SE,126,9.0,15.0,36,0.00,,,0.00,weatherlink.com 1.10,2013-04-13 23:28:00,
2013-04-13 17:43:00,43.1,19.0,29.65,East,96,2.0,12.0,38,0.00,,,0.00,weatherlink.com 1.10,2013-04-13 23:43:00,
2013-04-13 17:58:00,42.5,20.0,29.64,ESE,117,5.0,9.0,40,0.00,,,0.00,weatherlink.com 1.10,2013-04-13 23:58:00,
2013-04-13 18:13:00,42.5,20.0,29.64,ESE,105,11.0,11.0,41,0.00,,,0.00,weatherlink.com 1.10,2013-04-14 00:13:00,
2013-04-13 18:28:00,42.0,21.0,29.63,SE,139,0.0,7.0,43,0.00,,,0.00,weatherlink.com 1.10,2013-04-14 00:28:00,
2013-04-13 18:43:00,41.9,21.0,29.62,East,79,2.0,5.0,43,0.00,,,0.00,weatherlink.com 1.10,2013-04-14 00:43:00,
2013-04-13 18:58:00,41.7,20.0,29.61,SE,129,1.0,3.0,42,0.00,,,0.00,weatherlink.com 1.10,2013-04-14 00:58:00,
2013-04-13 19:13:00,41.8,19.0,29.60,ESE,103,0.0,4.0,40,0.00,,,0.00,weatherlink.com 1.10,2013-04-14 01:13:00,
2013-04-13 19:28:00,41.9,18.0,29.59,East,82,5.0,9.0,39,0.00,,,0.00,weatherlink.com 1.10,2013-04-14 01:28:00,
2013-04-13 19:43:00,41.9,19.0,29.57,SSW,205,1.0,7.0,40,0.00,,,0.00,weatherlink.com 1.10,2013-04-14 01:43:00,
2013-04-13 19:58:00,42.0,20.0,29.58,SSW,208,1.0,9.0,41,0.00,,,0.00,weatherlink.com 1.10,2013-04-14 01:58:00,
2013-04-13 20:13:00,41.7,21.0,29.59,East,93,11.0,16.0,44,0.00,,,0.00,weatherlink.com 1.10,2013-04-14 02:13:00,
2013-04-13 20:29:00,40.7,22.0,29.59,ESE,116,0.0,6.0,48,0.00,,,0.00,weatherlink.com 1.10,2013-04-14 02:29:00,
2013-04-13 20:44:00,40.6,23.0,29.58,ESE,103,0.0,6.0,49,0.00,,,0.00,weatherlink.com 1.10,2013-04-14 02:44:00,
2013-04-13 20:59:00,40.0,23.0,29.58,ESE,116,10.0,13.0,50,0.00,,,0.00,weatherlink.com 1.10,2013-04-14 02:59:00,
2013-04-13 21:14:00,40.7,23.0,29.57,ESE,103,0.0,10.0,50,0.00,,,0.00,weatherlink.com 1.10,2013-04-14 03:14:00,
2013-04-13 21:29:00,40.0,24.0,29.55,SSE,165,0.0,0.0,54,0.00,,,0.00,weatherlink.com 1.10,2013-04-14 03:29:00,
2013-04-13 21:44:00,38.6,25.0,29.54,SSW,193,0.0,1.0,58,0.00,,,0.00,weatherlink.com 1.10,2013-04-14 03:44:00,
2013-04-13 21:59:00,37.8,26.0,29.55,SSW,193,0.0,0.0,62,0.00,,,0.00,weatherlink.com 1.10,2013-04-14 03:59:00,
2013-04-13 22:14:00,37.1,26.0,29.54,SE,141,0.0,2.0,64,0.00,,,0.00,weatherlink.com 1.10,2013-04-14 04:14:00,
2013-04-13 22:29:00,38.1,24.0,29.54,SW,233,2.0,12.0,58,0.00,,,0.00,weatherlink.com 1.10,2013-04-14 04:29:00,
2013-04-13 22:44:00,41.1,25.0,29.53,East,96,8.0,26.0,54,0.00,,,0.00,weatherlink.com 1.10,2013-04-14 04:44:00,
2013-04-13 22:59:00,39.3,28.0,29.55,ESE,111,4.0,20.0,65,0.00,,,0.00,weatherlink.com 1.10,2013-04-14 04:59:00,
2013-04-13 23:14:00,35.8,30.0,29.55,ESE,114,7.0,14.0,80,0.00,,,0.00,weatherlink.com 1.10,2013-04-14 05:14:00,
2013-04-13 23:29:00,34.6,31.0,29.54,ESE,115,2.0,10.0,85,0.00,,,0.00,weatherlink.com 1.10,2013-04-14 05:29:00,
2013-04-13 23:44:00,34.4,31.0,29.52,SE,124,3.0,12.0,86,0.00,,,0.00,weatherlink.com 1.10,2013-04-14 05:44:00,
2013-04-13 23:59:00,33.9,31.0,29.52,South,178,1.0,9.0,89,0.00,,,0.00,weatherlink.com 1.10,2013-04-14 05:59:00,